sat.trackr.live / text

‹ back to catalog

STARLINK-30615

NORAD 58092 · 2023-160T

PAYLOAD ACTIVE UNKNOWN

§ Identity

Operator
Country
US
Launch date
2023-10-18
Launch site
AFETR
Launch vehicle
Mass (kg)
RCS (m²)

Purposes: comms

External: N2YO · Heavens-Above · Gunter

§ Orbital elements

Epoch: 2026-09-20T16:42:50.831424Z

Period
94.27 min
Inclination
43.0034°
Eccentricity
0.0002183
Mean motion
15.27570182 rev/d
Perigee alt
481.6 km
Apogee alt
484.6 km
Semi-major
6,861.2 km
B*
-2.1447e-5
RAAN
57.0924°
Arg perigee
265.0390°
Mean anomaly
95.0213°
Rev number
16,276

§ Raw data

STARLINK-306151 58092U 23160T   26263.69642166 -.00000852  00000+0 -21447-4 0  99932 58092  43.0034  57.0924 0002183 265.0390  95.0213 15.27570182162766

JSON: /api/v1/satellites/58092 · /tle

For live sub-satellite position, see the globe view (requires WebGL).

§ Visibility from observer

Set your observer location to see the next 7 days of passes ≥ 10°. The values pass through the URL so the page stays shareable.

No JS? Fill the form by hand. The geolocation button needs JavaScript.